IBE250 LPPT-ESSA

Flight info

Callsign IBE250
Flight time N/A
Altitude 38000
Route IXID1S IXIDA PINEK LOTEE AZFIC ERIGA GODIX PODEM UN873 BAZOS BELDI VEKIN ADUTO N873 VICOT JUIST ROCZO DOSUR DETSO N873 ARS T317 ELTOK ELTO8P
Aircraft A346/H-VGDW/C

Departure

Time N/A
Airport Lisbon Humberto Delgado Airport (LPPT)

Arrival

Time 2026-05-07 19:07
Airport Stockholm-Arlanda Airport (ESSA)
Time Latitude Longitude Altitude Speed Heading
2026-05-07 17:51 54.42277 7.92916 38089 ft 487 kts 38°
2026-05-07 17:51 54.44964 7.96451 38123 ft 486 kts 38°
2026-05-07 17:52 54.50360 8.03564 38127 ft 486 kts 37°
2026-05-07 17:52 54.55729 8.10655 38187 ft 489 kts 37°
2026-05-07 17:53 54.58429 8.14227 38529 ft 488 kts 37°
2026-05-07 17:53 54.61120 8.17793 38885 ft 487 kts 37°
2026-05-07 17:53 54.63781 8.21324 39080 ft 488 kts 37°
2026-05-07 17:53 54.66477 8.24906 39114 ft 488 kts 37°
2026-05-07 17:54 54.71861 8.32080 39122 ft 488 kts 37°
2026-05-07 17:54 54.77252 8.39287 39127 ft 488 kts 37°
2026-05-07 17:55 54.82624 8.46495 39129 ft 488 kts 38°
2026-05-07 17:55 54.87954 8.53671 39124 ft 488 kts 38°
2026-05-07 17:56 54.93311 8.60909 39126 ft 488 kts 38°
2026-05-07 17:56 54.98669 8.68175 39129 ft 488 kts 38°
2026-05-07 17:57 55.03151 8.74272 39127 ft 488 kts 38°
2026-05-07 17:57 55.09405 8.82806 39124 ft 488 kts 38°
2026-05-07 17:58 55.14750 8.90129 39131 ft 488 kts 38°
2026-05-07 17:58 55.20101 8.97485 39145 ft 488 kts 38°
2026-05-07 17:59 55.25460 9.04881 39141 ft 487 kts 38°
2026-05-07 17:59 55.30790 9.12261 39143 ft 487 kts 38°
2026-05-07 18:00 55.36076 9.19604 39140 ft 487 kts 38°
2026-05-07 18:00 55.41396 9.27023 39144 ft 488 kts 38°
2026-05-07 18:01 55.46712 9.34463 39145 ft 487 kts 38°
2026-05-07 18:01 55.52022 9.41919 39131 ft 487 kts 38°
2026-05-07 18:02 55.59959 9.53113 39122 ft 487 kts 38°
2026-05-07 18:03 55.65223 9.60572 39130 ft 487 kts 38°
2026-05-07 18:03 55.70525 9.68110 39129 ft 487 kts 38°
2026-05-07 18:04 55.75817 9.75662 39123 ft 487 kts 38°
2026-05-07 18:04 55.81108 9.83239 39125 ft 488 kts 38°
2026-05-07 18:05 55.86385 9.90824 39131 ft 488 kts 38°
2026-05-07 18:05 55.91668 9.98445 39132 ft 487 kts 38°
2026-05-07 18:06 55.96900 10.06020 39128 ft 487 kts 38°
2026-05-07 18:06 56.02189 10.13703 39131 ft 487 kts 39°
2026-05-07 18:07 56.07410 10.21315 39131 ft 487 kts 39°
2026-05-07 18:07 56.12675 10.29021 39130 ft 487 kts 39°
2026-05-07 18:08 56.17921 10.36727 39134 ft 487 kts 39°
2026-05-07 18:08 56.23169 10.44464 39134 ft 487 kts 39°
2026-05-07 18:09 56.28409 10.52216 39142 ft 487 kts 39°
2026-05-07 18:09 56.33644 10.59989 39143 ft 487 kts 39°
2026-05-07 18:10 56.38848 10.67745 39149 ft 487 kts 39°
2026-05-07 18:10 56.44080 10.75577 39145 ft 487 kts 39°
2026-05-07 18:11 56.49304 10.83417 39141 ft 487 kts 39°
2026-05-07 18:11 56.54519 10.91275 39143 ft 487 kts 39°
2026-05-07 18:12 56.59738 10.99168 39147 ft 487 kts 39°
2026-05-07 18:12 56.64904 11.07018 39147 ft 487 kts 39°
2026-05-07 18:13 56.70106 11.14944 39150 ft 488 kts 39°
2026-05-07 18:13 56.75309 11.22899 39148 ft 488 kts 39°
2026-05-07 18:14 56.80503 11.30873 39145 ft 488 kts 39°
2026-05-07 18:14 56.85695 11.38874 39144 ft 488 kts 39°
2026-05-07 18:15 56.90882 11.46906 39146 ft 489 kts 39°
2026-05-07 18:15 56.96084 11.54980 39145 ft 490 kts 39°
2026-05-07 18:16 57.01279 11.63075 39143 ft 490 kts 39°
2026-05-07 18:16 57.06468 11.71193 39142 ft 489 kts 39°
2026-05-07 18:17 57.11618 11.79284 39145 ft 490 kts 39°
2026-05-07 18:17 57.16803 11.87461 39143 ft 491 kts 39°
2026-05-07 18:18 57.21997 11.95676 39131 ft 491 kts 39°
2026-05-07 18:18 57.27179 12.03906 39146 ft 491 kts 39°
2026-05-07 18:19 57.32329 12.12121 39138 ft 491 kts 39°
2026-05-07 18:19 57.37502 12.20410 39140 ft 492 kts 39°
2026-05-07 18:20 57.42699 12.28760 39138 ft 493 kts 39°
2026-05-07 18:20 57.47876 12.37112 39134 ft 493 kts 39°
2026-05-07 18:21 57.53064 12.45515 39133 ft 493 kts 39°
2026-05-07 18:21 57.58233 12.53921 39150 ft 493 kts 39°
2026-05-07 18:22 57.63407 12.62371 39139 ft 495 kts 39°
2026-05-07 18:22 57.68590 12.70865 39122 ft 495 kts 39°
2026-05-07 18:23 57.73762 12.79373 39125 ft 495 kts 39°
2026-05-07 18:23 57.78929 12.87911 39125 ft 495 kts 39°
2026-05-07 18:24 57.84094 12.96479 39138 ft 496 kts 39°
2026-05-07 18:24 57.89270 13.05099 39128 ft 497 kts 39°
2026-05-07 18:25 57.94403 13.13680 39131 ft 497 kts 39°
2026-05-07 18:25 57.99573 13.22358 39131 ft 497 kts 39°
2026-05-07 18:26 58.04737 13.31063 39132 ft 497 kts 40°
2026-05-07 18:26 58.09897 13.39794 39132 ft 497 kts 40°
2026-05-07 18:27 58.15009 13.48480 39133 ft 497 kts 40°
2026-05-07 18:27 58.20188 13.57317 39133 ft 497 kts 40°
2026-05-07 18:28 58.25318 13.66105 39135 ft 497 kts 40°
2026-05-07 18:28 58.30452 13.74936 39134 ft 498 kts 40°
2026-05-07 18:29 58.35560 13.83756 39138 ft 498 kts 40°
2026-05-07 18:29 58.40696 13.92663 39138 ft 498 kts 40°
2026-05-07 18:30 58.45815 14.01577 39139 ft 499 kts 40°
2026-05-07 18:30 58.50938 14.10533 39127 ft 499 kts 40°
2026-05-07 18:31 58.56058 14.19528 39106 ft 501 kts 40°
2026-05-07 18:31 58.58606 14.24112 38782 ft 502 kts 43°
2026-05-07 18:31 58.61033 14.28963 38238 ft 503 kts 46°
2026-05-07 18:31 58.63320 14.34038 37687 ft 503 kts 47°
2026-05-07 18:32 58.65551 14.39184 37312 ft 496 kts 48°
2026-05-07 18:32 58.67732 14.44271 36933 ft 489 kts 48°
2026-05-07 18:32 58.69893 14.49324 36391 ft 487 kts 47°
2026-05-07 18:32 58.72044 14.54349 35779 ft 486 kts 47°
2026-05-07 18:33 58.74160 14.59294 35198 ft 485 kts 47°
2026-05-07 18:33 58.76304 14.64309 34624 ft 483 kts 46°
2026-05-07 18:33 58.78438 14.69309 34082 ft 482 kts 46°
2026-05-07 18:33 58.80573 14.74302 33380 ft 481 kts 46°
2026-05-07 18:34 58.82707 14.79289 32611 ft 482 kts 46°
2026-05-07 18:34 58.84849 14.84311 31809 ft 485 kts 46°
2026-05-07 18:34 58.86999 14.89366 30994 ft 487 kts 46°
2026-05-07 18:34 58.88424 14.92731 30461 ft 489 kts 47°
2026-05-07 18:35 58.90454 14.98080 29532 ft 494 kts 52°
2026-05-07 18:35 58.92365 15.03682 28572 ft 497 kts 53°
2026-05-07 18:35 58.94227 15.09307 28013 ft 494 kts 54°
2026-05-07 18:35 58.96091 15.14947 27647 ft 494 kts 54°
2026-05-07 18:36 58.97950 15.20545 27168 ft 492 kts 54°
2026-05-07 18:36 58.99806 15.26114 26738 ft 489 kts 53°
2026-05-07 18:36 59.01655 15.31638 26279 ft 488 kts 53°
2026-05-07 18:36 59.03507 15.37155 25816 ft 485 kts 53°
2026-05-07 18:37 59.05345 15.42633 25371 ft 482 kts 53°
2026-05-07 18:37 59.07152 15.48028 24970 ft 480 kts 53°
2026-05-07 18:37 59.08965 15.53450 24578 ft 478 kts 53°
2026-05-07 18:37 59.10777 15.58889 24187 ft 475 kts 53°
2026-05-07 18:38 59.12568 15.64277 23760 ft 473 kts 54°
2026-05-07 18:38 59.14348 15.69649 23258 ft 470 kts 54°
2026-05-07 18:38 59.16110 15.74977 22766 ft 466 kts 54°
2026-05-07 18:38 59.17858 15.80275 22271 ft 462 kts 54°
2026-05-07 18:39 59.19593 15.85547 21787 ft 458 kts 54°
2026-05-07 18:39 59.21309 15.90778 21320 ft 455 kts 54°
2026-05-07 18:39 59.23011 15.95974 20801 ft 452 kts 54°
2026-05-07 18:39 59.24700 16.01136 20290 ft 449 kts 54°
2026-05-07 18:40 59.26374 16.06262 19784 ft 445 kts 54°
2026-05-07 18:40 59.28032 16.11351 19264 ft 441 kts 54°
2026-05-07 18:40 59.29673 16.16399 18757 ft 437 kts 54°
2026-05-07 18:40 59.31299 16.21412 18227 ft 434 kts 54°
2026-05-07 18:41 59.32907 16.26381 17644 ft 429 kts 54°
2026-05-07 18:41 59.34500 16.31314 17074 ft 425 kts 54°
2026-05-07 18:41 59.36074 16.36197 16503 ft 420 kts 54°
2026-05-07 18:41 59.37626 16.41021 15956 ft 416 kts 54°
2026-05-07 18:42 59.39162 16.45808 15414 ft 412 kts 55°
2026-05-07 18:42 59.40671 16.50521 14860 ft 402 kts 55°
2026-05-07 18:42 59.42129 16.55102 14572 ft 389 kts 54°
2026-05-07 18:42 59.43555 16.59576 14196 ft 383 kts 54°
2026-05-07 18:43 59.44957 16.63967 13827 ft 376 kts 54°
2026-05-07 18:43 59.46330 16.68277 13380 ft 365 kts 54°
2026-05-07 18:43 59.47630 16.72376 13036 ft 349 kts 54°
2026-05-07 18:43 59.48886 16.76347 12731 ft 334 kts 54°
2026-05-07 18:44 59.50088 16.80155 12444 ft 319 kts 54°
2026-05-07 18:44 59.51236 16.83796 12119 ft 307 kts 54°
2026-05-07 18:44 59.52357 16.87347 11644 ft 303 kts 54°
2026-05-07 18:44 59.53464 16.90857 11118 ft 300 kts 54°
2026-05-07 18:45 59.54560 16.94347 10591 ft 298 kts 54°
2026-05-07 18:45 59.55648 16.97801 10090 ft 295 kts 55°
2026-05-07 18:45 59.56725 17.01227 9538 ft 293 kts 55°
2026-05-07 18:45 59.57791 17.04627 9027 ft 289 kts 56°
2026-05-07 18:46 59.58842 17.07986 8514 ft 285 kts 56°
2026-05-07 18:46 59.59877 17.11304 8075 ft 282 kts 56°
2026-05-07 18:46 59.60897 17.14583 7755 ft 279 kts 56°
2026-05-07 18:46 59.61913 17.17852 7417 ft 277 kts 56°
2026-05-07 18:47 59.62918 17.21083 7179 ft 274 kts 57°
2026-05-07 18:47 59.63914 17.24311 7145 ft 276 kts 57°
2026-05-07 18:47 59.64917 17.27559 7144 ft 276 kts 57°
2026-05-07 18:47 59.65922 17.30815 7145 ft 276 kts 57°
2026-05-07 18:48 59.66924 17.34063 7148 ft 276 kts 57°
2026-05-07 18:48 59.67912 17.37272 7147 ft 276 kts 57°
2026-05-07 18:48 59.68925 17.40562 7147 ft 276 kts 57°
2026-05-07 18:48 59.69911 17.43777 7147 ft 276 kts 57°
2026-05-07 18:49 59.70911 17.47037 7148 ft 276 kts 57°
2026-05-07 18:49 59.71910 17.50298 7147 ft 276 kts 57°
2026-05-07 18:49 59.72908 17.53558 7147 ft 276 kts 57°
2026-05-07 18:49 59.73900 17.56805 7079 ft 272 kts 57°
2026-05-07 18:50 59.74885 17.60020 6690 ft 273 kts 57°
2026-05-07 18:50 59.75872 17.63232 6334 ft 272 kts 57°
2026-05-07 18:50 59.76855 17.66425 5999 ft 270 kts 57°
2026-05-07 18:50 59.77833 17.69605 5646 ft 269 kts 57°
2026-05-07 18:51 59.78807 17.72754 5416 ft 263 kts 57°
2026-05-07 18:51 59.79755 17.75816 5216 ft 255 kts 57°
2026-05-07 18:51 59.80666 17.78777 5043 ft 246 kts 57°
2026-05-07 18:51 59.81538 17.81597 4777 ft 236 kts 58°
2026-05-07 18:52 59.82381 17.84299 4569 ft 225 kts 57°
2026-05-07 18:52 59.83165 17.86956 4336 ft 222 kts 69°
2026-05-07 18:52 59.83423 17.89962 4080 ft 220 kts 88°
2026-05-07 18:52 59.83410 17.93000 3839 ft 217 kts 94°
2026-05-07 18:53 59.82966 17.95833 3552 ft 217 kts 125°
2026-05-07 18:53 59.81839 17.97722 3366 ft 212 kts 159°
2026-05-07 18:53 59.80401 17.97992 3102 ft 210 kts 189°
2026-05-07 18:53 59.78993 17.97265 2784 ft 208 kts 195°
2026-05-07 18:54 59.77604 17.96495 2510 ft 204 kts 194°
2026-05-07 18:54 59.76289 17.95875 2483 ft 185 kts 191°
2026-05-07 18:54 59.75063 17.95405 2470 ft 173 kts 189°
2026-05-07 18:54 59.73907 17.95002 2246 ft 165 kts 189°
2026-05-07 18:55 59.72790 17.94601 1970 ft 159 kts 189°
2026-05-07 18:55 59.71670 17.94168 2198 ft 176 kts 191°
2026-05-07 18:55 59.70413 17.93651 2769 ft 194 kts 191°
2026-05-07 18:55 59.69023 17.93086 3408 ft 210 kts 189°
2026-05-07 18:56 59.67540 17.93131 3667 ft 217 kts 171°
2026-05-07 18:56 59.66021 17.93145 3730 ft 228 kts 195°
2026-05-07 18:56 59.64684 17.91492 3954 ft 225 kts 230°
2026-05-07 18:56 59.63973 17.88791 4026 ft 221 kts 252°
2026-05-07 18:57 59.63570 17.85872 4015 ft 219 kts 256°
2026-05-07 18:57 59.63231 17.82934 4006 ft 218 kts 257°
2026-05-07 18:57 59.62992 17.79977 3982 ft 219 kts 274°
2026-05-07 18:57 59.63493 17.77177 3981 ft 220 kts 309°
2026-05-07 18:58 59.64716 17.75423 4001 ft 221 kts 343°
2026-05-07 18:58 59.66243 17.75146 4023 ft 221 kts
2026-05-07 18:58 59.67757 17.75418 4012 ft 221 kts
2026-05-07 18:58 59.69284 17.75795 4003 ft 221 kts
2026-05-07 18:59 59.70815 17.76194 4003 ft 221 kts
2026-05-07 18:59 59.72340 17.76597 4001 ft 221 kts
2026-05-07 18:59 59.73866 17.77006 3990 ft 221 kts 10°
2026-05-07 18:59 59.75369 17.77717 4003 ft 221 kts 16°
2026-05-07 19:00 59.76842 17.78596 4000 ft 221 kts 17°
2026-05-07 19:00 59.78316 17.79513 4000 ft 222 kts 17°
2026-05-07 19:00 59.79791 17.80438 4002 ft 222 kts 17°
2026-05-07 19:00 59.81254 17.81358 3969 ft 218 kts 17°
2026-05-07 19:01 59.82704 17.82265 3673 ft 219 kts 17°
2026-05-07 19:01 59.84140 17.83318 3370 ft 218 kts 35°
2026-05-07 19:01 59.85094 17.85474 3194 ft 209 kts 70°
2026-05-07 19:01 59.85340 17.88249 3041 ft 200 kts 88°
2026-05-07 19:02 59.85346 17.90988 2867 ft 196 kts 92°
2026-05-07 19:02 59.85171 17.93667 2562 ft 197 kts 116°
2026-05-07 19:02 59.84271 17.95575 2501 ft 186 kts 152°
2026-05-07 19:02 59.83101 17.96521 2523 ft 179 kts 160°
2026-05-07 19:03 59.81904 17.97130 2555 ft 180 kts 169°
2026-05-07 19:03 59.80651 17.97236 2527 ft 180 kts 182°
2026-05-07 19:03 59.79412 17.96984 2514 ft 179 kts 187°
2026-05-07 19:03 59.78185 17.96574 2494 ft 178 kts 189°
2026-05-07 19:04 59.76990 17.96131 2253 ft 170 kts 190°
2026-05-07 19:04 59.75859 17.95711 2019 ft 159 kts 189°
2026-05-07 19:04 59.74808 17.95327 1785 ft 148 kts 189°
2026-05-07 19:04 59.73803 17.94964 1587 ft 146 kts 189°
2026-05-07 19:05 59.72806 17.94605 1414 ft 145 kts 188°
2026-05-07 19:05 59.71811 17.94250 1225 ft 145 kts 188°
2026-05-07 19:05 59.70818 17.93910 1008 ft 145 kts 188°
2026-05-07 19:05 59.69831 17.93536 769 ft 144 kts 189°
2026-05-07 19:06 59.68848 17.93174 586 ft 144 kts 188°
2026-05-07 19:06 59.66875 17.92462 227 ft 144 kts 188°
2026-05-07 19:06 59.65953 17.92133 153 ft 108 kts 191°
2026-05-07 19:07 59.65463 17.91948 153 ft 43 kts 190°
2026-05-07 19:07 59.65245 17.91903 153 ft 25 kts 178°
2026-05-07 19:07 59.65089 17.91958 149 ft 18 kts 159°
2026-05-07 19:07 59.65000 17.92036 147 ft 0 kts 147°
2026-05-07 19:09 59.64999 17.92037 147 ft 1 kts 147°
2026-05-07 19:10 59.64983 17.92057 147 ft 5 kts 147°
2026-05-07 19:10 59.64941 17.92099 146 ft 9 kts 161°
2026-05-07 19:10 59.64880 17.92100 146 ft 7 kts 187°
2026-05-07 19:10 59.64815 17.92080 146 ft 12 kts 189°
2026-05-07 19:11 59.64721 17.92050 146 ft 12 kts 191°
2026-05-07 19:11 59.64701 17.92042 146 ft 1 kts 191°
2026-05-07 19:11 59.64694 17.92040 146 ft 0 kts 191°
2026-05-07 19:12 59.64693 17.92039 146 ft 1 kts 191°
2026-05-07 19:12 59.64678 17.92033 146 ft 4 kts 191°
2026-05-07 19:13 59.64636 17.92017 146 ft 8 kts 191°
2026-05-07 19:13 59.64567 17.91990 146 ft 12 kts 191°
2026-05-07 19:13 59.64524 17.91973 146 ft 5 kts 191°